Time,TemperatureF,DewpointF,PressureIn,WindDirection,WindDirectionDegrees,WindSpeedMPH,WindSpeedGustMPH,Humidity,HourlyPrecipIn,Conditions,Clouds,dailyrainin,SoftwareType,DateUTC
2013-03-12 00:00:00,33.3,30.4,29.79,WNW,292,11.1,13.4,89,0.00,,,0.00,WUHU216WMR100,2013-03-12 05:00:00,
2013-03-12 00:05:00,33.3,30.1,29.79,NW,315,7.1,11.1,88,0.00,,,0.00,WUHU216WMR100,2013-03-12 05:05:00,
2013-03-12 00:10:00,33.3,30.1,29.79,WNW,290,14.2,16.2,88,0.00,,,0.00,WUHU216WMR100,2013-03-12 05:10:00,
2013-03-12 00:15:00,33.3,29.8,29.79,West,270,10.7,17.0,87,0.00,,,0.00,WUHU216WMR100,2013-03-12 05:15:00,
2013-03-12 00:20:00,33.3,29.8,29.79,WNW,292,16.7,17.0,87,0.00,,,0.00,WUHU216WMR100,2013-03-12 05:20:00,
2013-03-12 00:25:00,33.3,29.8,29.79,West,259,7.4,16.7,87,0.00,,,0.00,WUHU216WMR100,2013-03-12 05:25:00,
2013-03-12 00:30:00,33.3,29.8,29.79,WNW,292,4.8,16.7,87,0.00,,,0.00,WUHU216WMR100,2013-03-12 05:30:00,
2013-03-12 00:35:00,33.3,29.8,29.79,WSW,258,8.3,15.5,87,0.00,,,0.00,WUHU216WMR100,2013-03-12 05:35:00,
2013-03-12 00:40:00,33.3,29.5,29.79,West,266,7.9,15.5,86,0.00,,,0.00,WUHU216WMR100,2013-03-12 05:40:00,
2013-03-12 00:45:00,33.3,29.5,29.79,West,279,5.5,10.4,86,0.00,,,0.00,WUHU216WMR100,2013-03-12 05:45:00,
2013-03-12 00:50:00,33.1,29.3,29.79,WSW,247,5.6,9.9,86,0.00,,,0.00,WUHU216WMR100,2013-03-12 05:50:00,
2013-03-12 00:55:00,33.1,29.1,29.79,NW,310,9.9,16.2,85,0.00,,,0.00,WUHU216WMR100,2013-03-12 05:55:00,
2013-03-12 01:00:00,33.1,28.8,29.79,WSW,247,9.2,16.2,84,0.00,,,0.00,WUHU216WMR100,2013-03-12 06:00:00,
2013-03-12 01:05:00,33.1,28.5,29.79,WNW,292,10.7,12.9,83,0.00,,,0.00,WUHU216WMR100,2013-03-12 06:05:00,
2013-03-12 01:10:00,33.1,28.5,29.79,WNW,292,10.4,12.9,83,0.00,,,0.00,WUHU216WMR100,2013-03-12 06:10:00,
2013-03-12 01:15:00,33.1,28.5,29.79,WSW,247,10.4,12.2,83,0.00,,,0.00,WUHU216WMR100,2013-03-12 06:15:00,
2013-03-12 01:20:00,33.1,28.5,29.79,West,270,14.0,14.0,83,0.00,,,0.00,WUHU216WMR100,2013-03-12 06:20:00,
2013-03-12 01:25:00,33.1,28.2,29.79,WNW,292,10.7,14.0,82,0.00,,,0.00,WUHU216WMR100,2013-03-12 06:25:00,
2013-03-12 01:30:00,33.1,28.2,29.82,WSW,247,9.2,14.0,82,0.00,,,0.00,WUHU216WMR100,2013-03-12 06:30:00,
2013-03-12 01:35:00,33.1,28.2,29.82,NW,320,7.7,12.5,82,0.00,,,0.00,WUHU216WMR100,2013-03-12 06:35:00,
2013-03-12 01:40:00,33.1,27.9,29.82,WNW,292,7.1,12.5,81,0.00,,,0.00,WUHU216WMR100,2013-03-12 06:40:00,
2013-03-12 01:45:00,33.1,27.9,29.79,SSW,202,14.0,14.4,81,0.00,,,0.00,WUHU216WMR100,2013-03-12 06:45:00,
2013-03-12 01:50:00,33.1,27.9,29.79,WSW,247,5.9,14.4,81,0.00,,,0.00,WUHU216WMR100,2013-03-12 06:50:00,
2013-03-12 01:55:00,33.1,27.9,29.79,WSW,254,3.9,14.0,81,0.00,,,0.00,WUHU216WMR100,2013-03-12 06:55:00,
2013-03-12 02:00:00,33.1,27.9,29.82,WNW,292,8.1,10.7,81,0.00,,,0.00,WUHU216WMR100,2013-03-12 07:00:00,
2013-03-12 02:05:00,33.1,27.6,29.82,WNW,287,9.4,17.0,80,0.00,,,0.00,WUHU216WMR100,2013-03-12 07:05:00,
2013-03-12 02:10:00,33.1,27.6,29.82,WNW,284,4.4,17.0,80,0.00,,,0.00,WUHU216WMR100,2013-03-12 07:10:00,
2013-03-12 02:15:00,32.9,27.4,29.82,WSW,247,6.3,10.4,80,0.00,,,0.00,WUHU216WMR100,2013-03-12 07:15:00,
2013-03-12 02:20:00,32.9,27.4,29.82,WNW,292,7.1,9.6,80,0.00,,,0.00,WUHU216WMR100,2013-03-12 07:20:00,
2013-03-12 02:25:00,32.9,27.4,29.82,WNW,292,5.8,7.1,80,0.00,,,0.00,WUHU216WMR100,2013-03-12 07:25:00,
2013-03-12 02:30:00,32.9,27.4,29.82,WNW,286,6.1,7.1,80,0.00,,,0.00,WUHU216WMR100,2013-03-12 07:30:00,
2013-03-12 02:35:00,32.9,27.4,29.82,NW,307,6.3,7.1,80,0.00,,,0.00,WUHU216WMR100,2013-03-12 07:35:00,
2013-03-12 02:40:00,32.9,27.4,29.82,NW,311,7.2,8.9,80,0.00,,,0.00,WUHU216WMR100,2013-03-12 07:40:00,
2013-03-12 02:45:00,32.9,27.4,29.82,NW,304,8.8,12.2,80,0.00,,,0.00,WUHU216WMR100,2013-03-12 07:45:00,
2013-03-12 02:50:00,32.9,27.4,29.82,WSW,247,5.1,12.2,80,0.00,,,0.00,WUHU216WMR100,2013-03-12 07:50:00,
2013-03-12 02:55:00,32.9,27.4,29.82,WSW,249,5.9,12.5,80,0.00,,,0.00,WUHU216WMR100,2013-03-12 07:55:00,
2013-03-12 03:00:00,32.7,27.2,29.82,West,281,9.1,12.5,80,0.00,,,0.00,WUHU216WMR100,2013-03-12 08:00:00,
2013-03-12 03:05:00,32.7,27.2,29.82,WSW,247,12.9,12.9,80,0.00,,,0.00,WUHU216WMR100,2013-03-12 08:05:00,
2013-03-12 03:10:00,32.7,27.2,29.82,WSW,255,9.3,12.9,80,0.00,,,0.00,WUHU216WMR100,2013-03-12 08:10:00,
2013-03-12 03:15:00,32.7,27.2,29.82,West,270,8.9,12.9,80,0.00,,,0.00,WUHU216WMR100,2013-03-12 08:15:00,
2013-03-12 03:20:00,32.7,27.2,29.82,WSW,257,6.0,11.9,80,0.00,,,0.00,WUHU216WMR100,2013-03-12 08:20:00,
2013-03-12 03:25:00,32.5,27.3,29.82,WNW,292,8.9,10.4,81,0.00,,,0.00,WUHU216WMR100,2013-03-12 08:25:00,
2013-03-12 03:30:00,32.5,27.3,29.82,West,279,6.6,14.0,81,0.00,,,0.00,WUHU216WMR100,2013-03-12 08:30:00,
2013-03-12 03:35:00,32.5,27.3,29.82,WNW,292,11.1,14.0,81,0.00,,,0.00,WUHU216WMR100,2013-03-12 08:35:00,
2013-03-12 03:40:00,32.5,27.3,29.82,WSW,247,9.6,11.9,81,0.00,,,0.00,WUHU216WMR100,2013-03-12 08:40:00,
2013-03-12 03:45:00,32.4,27.2,29.82,WNW,292,10.7,13.4,81,0.00,,,0.00,WUHU216WMR100,2013-03-12 08:45:00,
2013-03-12 03:50:00,32.4,26.9,29.82,West,271,11.3,13.4,80,0.00,,,0.00,WUHU216WMR100,2013-03-12 08:50:00,
2013-03-12 03:55:00,32.2,26.7,29.82,WNW,296,8.1,13.4,80,0.00,,,0.00,WUHU216WMR100,2013-03-12 08:55:00,
2013-03-12 04:00:00,32.0,26.5,29.82,WNW,292,9.2,12.2,80,0.00,,,0.00,WUHU216WMR100,2013-03-12 09:00:00,
2013-03-12 04:05:00,32.0,26.5,29.82,WNW,292,5.9,12.2,80,0.00,,,0.00,WUHU216WMR100,2013-03-12 09:05:00,
2013-03-12 04:10:00,31.8,26.3,29.82,West,270,13.4,13.4,80,0.00,,,0.00,WUHU216WMR100,2013-03-12 09:10:00,
2013-03-12 04:15:00,31.8,26.3,29.82,West,274,6.8,13.4,80,0.00,,,0.00,WUHU216WMR100,2013-03-12 09:15:00,
2013-03-12 04:20:00,31.6,26.1,29.82,SW,230,12.5,17.7,80,0.00,,,0.00,WUHU216WMR100,2013-03-12 09:20:00,
2013-03-12 04:24:00,31.6,25.8,29.82,WNW,283,6.2,17.7,79,0.00,,,0.00,WUHU216WMR100,2013-03-12 09:24:00,
2013-03-12 04:29:00,31.6,25.8,29.82,WSW,247,16.2,16.2,79,0.00,,,0.00,WUHU216WMR100,2013-03-12 09:29:00,
2013-03-12 04:34:00,31.5,25.5,29.82,WNW,296,12.4,16.2,78,0.00,,,0.00,WUHU216WMR100,2013-03-12 09:34:00,
2013-03-12 04:39:00,31.5,25.5,29.82,WNW,292,6.3,16.2,78,0.00,,,0.00,WUHU216WMR100,2013-03-12 09:39:00,
2013-03-12 04:44:00,31.5,25.5,29.84,WSW,247,9.6,12.5,78,0.00,,,0.00,WUHU216WMR100,2013-03-12 09:44:00,
2013-03-12 04:49:00,31.3,25.0,29.84,WNW,292,9.6,17.0,77,0.00,,,0.00,WUHU216WMR100,2013-03-12 09:49:00,
2013-03-12 04:54:00,31.3,25.0,29.84,WNW,292,9.9,17.0,77,0.00,,,0.00,WUHU216WMR100,2013-03-12 09:54:00,
2013-03-12 04:59:00,31.3,25.0,29.84,WNW,292,11.9,14.4,77,0.00,,,0.00,WUHU216WMR100,2013-03-12 09:59:00,
2013-03-12 05:04:00,31.3,25.0,29.84,WSW,255,10.6,12.5,77,0.00,,,0.00,WUHU216WMR100,2013-03-12 10:04:00,
2013-03-12 05:09:00,31.3,25.0,29.84,WNW,292,6.3,12.5,77,0.00,,,0.00,WUHU216WMR100,2013-03-12 10:09:00,
2013-03-12 05:14:00,31.3,25.0,29.84,WSW,247,8.9,12.2,77,0.00,,,0.00,WUHU216WMR100,2013-03-12 10:14:00,
2013-03-12 05:19:00,31.1,24.8,29.84,West,264,11.3,15.2,77,0.00,,,0.00,WUHU216WMR100,2013-03-12 10:19:00,
2013-03-12 05:24:00,31.1,24.8,29.84,West,278,7.4,15.2,77,0.00,,,0.00,WUHU216WMR100,2013-03-12 10:24:00,
2013-03-12 05:29:00,31.1,24.5,29.84,West,272,11.1,19.6,76,0.00,,,0.00,WUHU216WMR100,2013-03-12 10:29:00,
2013-03-12 05:34:00,31.1,24.5,29.84,WNW,292,17.0,19.6,76,0.00,,,0.00,WUHU216WMR100,2013-03-12 10:34:00,
2013-03-12 05:39:00,31.1,24.5,29.84,West,270,10.5,17.0,76,0.00,,,0.00,WUHU216WMR100,2013-03-12 10:39:00,
2013-03-12 05:44:00,31.1,24.8,29.84,West,260,6.5,17.0,77,0.00,,,0.00,WUHU216WMR100,2013-03-12 10:44:00,
2013-03-12 05:49:00,31.1,24.5,29.84,West,280,4.0,10.7,76,0.00,,,0.00,WUHU216WMR100,2013-03-12 10:49:00,
2013-03-12 05:54:00,31.1,24.5,29.84,NW,312,5.1,10.7,76,0.00,,,0.00,WUHU216WMR100,2013-03-12 10:54:00,
2013-03-12 05:59:00,31.1,24.5,29.87,WNW,286,8.7,10.4,76,0.00,,,0.00,WUHU216WMR100,2013-03-12 10:59:00,
2013-03-12 06:04:00,31.1,24.1,29.87,WNW,298,5.0,10.4,75,0.00,,,0.00,WUHU216WMR100,2013-03-12 11:04:00,
2013-03-12 06:09:00,31.1,24.1,29.87,West,280,6.0,8.9,75,0.00,,,0.00,WUHU216WMR100,2013-03-12 11:09:00,
2013-03-12 06:14:00,31.1,24.1,29.87,NW,315,8.1,9.9,75,0.00,,,0.00,WUHU216WMR100,2013-03-12 11:14:00,
2013-03-12 06:19:00,30.9,23.6,29.87,West,279,8.4,10.7,74,0.00,,,0.00,WUHU216WMR100,2013-03-12 11:19:00,
2013-03-12 06:24:00,31.1,23.8,29.87,WSW,247,8.1,10.7,74,0.00,,,0.00,WUHU216WMR100,2013-03-12 11:24:00,
2013-03-12 06:29:00,31.1,23.8,29.87,WNW,287,5.7,16.7,74,0.00,,,0.00,WUHU216WMR100,2013-03-12 11:29:00,
2013-03-12 06:34:00,30.9,23.6,29.87,West,273,4.6,16.7,74,0.00,,,0.00,WUHU216WMR100,2013-03-12 11:34:00,
2013-03-12 06:39:00,30.9,23.6,29.87,WNW,292,9.9,9.9,74,0.00,,,0.00,WUHU216WMR100,2013-03-12 11:39:00,
2013-03-12 06:44:00,30.9,23.6,29.87,WNW,292,6.6,9.9,74,0.00,,,0.00,WUHU216WMR100,2013-03-12 11:44:00,
2013-03-12 06:49:00,30.9,23.6,29.87,West,278,6.5,10.4,74,0.00,,,0.00,WUHU216WMR100,2013-03-12 11:49:00,
2013-03-12 06:54:00,30.9,23.6,29.87,WNW,293,5.3,10.4,74,0.00,,,0.00,WUHU216WMR100,2013-03-12 11:54:00,
2013-03-12 06:59:00,30.9,23.6,29.87,WSW,247,5.9,6.6,74,0.00,,,0.00,WUHU216WMR100,2013-03-12 11:59:00,
2013-03-12 07:04:00,30.9,23.6,29.87,WSW,247,11.9,11.9,74,0.00,,,0.00,WUHU216WMR100,2013-03-12 12:04:00,
2013-03-12 07:09:00,30.9,23.6,29.87,West,270,8.1,11.9,74,0.00,,,0.00,WUHU216WMR100,2013-03-12 12:09:00,
2013-03-12 07:14:00,30.9,23.6,29.87,WNW,292,9.9,11.9,74,0.00,,,0.00,WUHU216WMR100,2013-03-12 12:14:00,
2013-03-12 07:19:00,30.9,23.6,29.87,WNW,297,9.3,10.4,74,0.00,,,0.00,WUHU216WMR100,2013-03-12 12:19:00,
2013-03-12 07:24:00,30.9,23.3,29.87,West,266,11.0,13.4,73,0.00,,,0.00,WUHU216WMR100,2013-03-12 12:24:00,
2013-03-12 07:29:00,30.9,23.3,29.90,WSW,247,6.3,13.4,73,0.00,,,0.00,WUHU216WMR100,2013-03-12 12:29:00,
2013-03-12 07:34:00,30.9,23.3,29.90,WNW,283,4.9,9.9,73,0.00,,,0.00,WUHU216WMR100,2013-03-12 12:34:00,
2013-03-12 07:39:00,30.9,23.0,29.90,WNW,292,9.9,12.9,72,0.00,,,0.00,WUHU216WMR100,2013-03-12 12:39:00,
2013-03-12 07:44:00,30.9,23.0,29.90,SW,225,7.3,12.9,72,0.00,,,0.00,WUHU216WMR100,2013-03-12 12:44:00,
2013-03-12 07:49:00,31.1,22.9,29.90,West,272,3.7,10.4,71,0.00,,,0.00,WUHU216WMR100,2013-03-12 12:49:00,
2013-03-12 07:54:00,31.1,22.9,29.90,WNW,292,7.1,10.4,71,0.00,,,0.00,WUHU216WMR100,2013-03-12 12:54:00,
2013-03-12 07:59:00,31.1,22.9,29.90,West,265,6.1,13.4,71,0.00,,,0.00,WUHU216WMR100,2013-03-12 12:59:00,
2013-03-12 08:04:00,31.1,23.2,29.90,NW,315,12.9,13.4,72,0.00,,,0.00,WUHU216WMR100,2013-03-12 13:04:00,
2013-03-12 08:09:00,30.9,22.7,29.90,WNW,287,11.6,12.9,71,0.00,,,0.00,WUHU216WMR100,2013-03-12 13:09:00,
2013-03-12 08:14:00,30.9,22.7,29.90,West,274,9.0,12.9,71,0.00,,,0.00,WUHU216WMR100,2013-03-12 13:14:00,
2013-03-12 08:19:00,30.7,22.5,29.90,WNW,292,10.7,10.7,71,0.00,,,0.00,WUHU216WMR100,2013-03-12 13:19:00,
2013-03-12 08:24:00,30.7,22.5,29.90,WNW,292,7.8,15.8,71,0.00,,,0.00,WUHU216WMR100,2013-03-12 13:24:00,
2013-03-12 08:29:00,30.6,22.0,29.90,West,262,8.2,15.8,70,0.00,,,0.00,WUHU216WMR100,2013-03-12 13:29:00,
2013-03-12 08:34:00,30.6,22.0,29.90,WSW,247,8.9,11.9,70,0.00,,,0.00,WUHU216WMR100,2013-03-12 13:34:00,
2013-03-12 08:39:00,30.6,21.7,29.90,West,272,9.3,12.2,69,0.00,,,0.00,WUHU216WMR100,2013-03-12 13:39:00,
2013-03-12 08:44:00,30.9,22.3,29.90,NNW,337,8.1,12.2,70,0.00,,,0.00,WUHU216WMR100,2013-03-12 13:44:00,
2013-03-12 08:49:00,31.1,22.5,29.90,WNW,292,5.6,9.6,70,0.00,,,0.00,WUHU216WMR100,2013-03-12 13:49:00,
2013-03-12 08:54:00,31.3,22.4,29.90,NW,307,7.1,9.6,69,0.00,,,0.00,WUHU216WMR100,2013-03-12 13:54:00,
2013-03-12 08:59:00,31.6,23.0,29.90,WSW,244,3.2,9.6,70,0.00,,,0.00,WUHU216WMR100,2013-03-12 13:59:00,
2013-03-12 09:04:00,31.6,22.3,29.90,WNW,283,4.8,9.2,68,0.00,,,0.00,WUHU216WMR100,2013-03-12 14:04:00,
2013-03-12 09:09:00,31.6,22.3,29.90,WSW,244,2.9,9.2,68,0.00,,,0.00,WUHU216WMR100,2013-03-12 14:09:00,
2013-03-12 09:14:00,32.0,23.0,29.90,West,270,4.1,8.9,69,0.00,,,0.00,WUHU216WMR100,2013-03-12 14:14:00,
2013-03-12 09:19:00,32.0,22.7,29.90,West,272,4.6,6.3,68,0.00,,,0.00,WUHU216WMR100,2013-03-12 14:19:00,
2013-03-12 09:24:00,32.4,22.7,29.90,WNW,292,4.8,8.9,67,0.00,,,0.00,WUHU216WMR100,2013-03-12 14:24:00,
2013-03-12 09:29:00,32.5,22.5,29.90,WSW,257,7.2,10.7,66,0.00,,,0.00,WUHU216WMR100,2013-03-12 14:29:00,
2013-03-12 09:34:00,32.9,22.5,29.90,SSW,202,7.1,10.7,65,0.00,,,0.00,WUHU216WMR100,2013-03-12 14:34:00,
2013-03-12 09:39:00,33.3,22.9,29.90,WNW,292,6.6,8.9,65,0.00,,,0.00,WUHU216WMR100,2013-03-12 14:39:00,
2013-03-12 09:44:00,33.3,22.5,29.90,SW,235,5.3,9.2,64,0.00,,,0.00,WUHU216WMR100,2013-03-12 14:44:00,
2013-03-12 09:49:00,33.6,22.4,29.90,WSW,247,7.8,9.9,63,0.00,,,0.00,WUHU216WMR100,2013-03-12 14:49:00,
2013-03-12 09:54:00,33.6,21.6,29.90,WNW,292,6.6,12.5,61,0.00,,,0.00,WUHU216WMR100,2013-03-12 14:54:00,
2013-03-12 09:59:00,33.6,20.8,29.90,WSW,241,7.3,12.5,59,0.00,,,0.00,WUHU216WMR100,2013-03-12 14:59:00,
2013-03-12 10:04:00,34.0,21.2,29.90,WSW,254,4.8,9.9,59,0.00,,,0.00,WUHU216WMR100,2013-03-12 15:04:00,
2013-03-12 10:09:00,34.2,20.6,29.90,WSW,255,9.5,12.2,57,0.00,,,0.00,WUHU216WMR100,2013-03-12 15:09:00,
2013-03-12 10:14:00,34.2,20.1,29.90,West,266,8.4,12.2,56,0.00,,,0.00,WUHU216WMR100,2013-03-12 15:14:00,
2013-03-12 10:19:00,34.0,19.5,29.90,SSW,211,11.7,16.2,55,0.00,,,0.00,WUHU216WMR100,2013-03-12 15:19:00,
2013-03-12 10:24:00,35.8,21.2,29.90,WSW,247,8.1,16.2,55,0.00,,,0.00,WUHU216WMR100,2013-03-12 15:24:00,
2013-03-12 10:29:00,36.3,21.7,29.90,WNW,292,7.1,12.5,55,0.00,,,0.00,WUHU216WMR100,2013-03-12 15:29:00,
2013-03-12 10:34:00,36.3,21.2,29.90,WSW,247,12.2,12.9,54,0.00,,,0.00,WUHU216WMR100,2013-03-12 15:34:00,
2013-03-12 10:39:00,35.1,21.0,29.90,SW,230,6.8,12.9,56,0.00,,,0.00,WUHU216WMR100,2013-03-12 15:39:00,
2013-03-12 10:44:00,36.3,22.1,29.90,West,260,7.0,16.2,56,0.00,,,0.00,WUHU216WMR100,2013-03-12 15:44:00,
2013-03-12 10:49:00,37.8,22.2,29.90,West,265,8.4,16.2,53,0.00,,,0.00,WUHU216WMR100,2013-03-12 15:49:00,
2013-03-12 10:54:00,37.4,20.9,29.90,NW,306,6.2,11.9,51,0.00,,,0.00,WUHU216WMR100,2013-03-12 15:54:00,
2013-03-12 10:59:00,38.7,22.1,29.90,SSW,202,9.2,14.7,51,0.00,,,0.00,WUHU216WMR100,2013-03-12 15:59:00,
2013-03-12 11:04:00,39.6,22.4,29.90,WSW,247,14.4,14.7,50,0.00,,,0.00,WUHU216WMR100,2013-03-12 16:04:00,
2013-03-12 11:09:00,39.7,22.5,29.90,South,179,7.9,14.4,50,0.00,,,0.00,WUHU216WMR100,2013-03-12 16:09:00,
2013-03-12 11:14:00,37.6,20.1,29.90,WSW,245,11.4,14.4,49,0.00,,,0.00,WUHU216WMR100,2013-03-12 16:14:00,
2013-03-12 11:19:00,37.6,20.6,29.90,WNW,300,9.2,12.5,50,0.00,,,0.00,WUHU216WMR100,2013-03-12 16:19:00,
2013-03-12 11:24:00,38.8,22.2,29.90,SW,236,7.6,15.8,51,0.00,,,0.00,WUHU216WMR100,2013-03-12 16:24:00,
2013-03-12 11:29:00,38.7,19.6,29.90,SW,232,8.5,15.8,46,0.00,,,0.00,WUHU216WMR100,2013-03-12 16:29:00,
2013-03-12 11:34:00,37.6,18.6,29.90,WNW,292,12.2,12.2,46,0.00,,,0.00,WUHU216WMR100,2013-03-12 16:34:00,
2013-03-12 11:39:00,37.0,19.5,29.90,WSW,247,9.2,13.4,49,0.00,,,0.00,WUHU216WMR100,2013-03-12 16:39:00,
2013-03-12 11:44:00,37.9,21.3,29.90,WSW,247,7.1,13.4,51,0.00,,,0.00,WUHU216WMR100,2013-03-12 16:44:00,
2013-03-12 11:49:00,38.1,21.0,29.90,WSW,246,11.2,12.9,50,0.00,,,0.00,WUHU216WMR100,2013-03-12 16:49:00,
2013-03-12 11:54:00,38.8,19.7,29.90,West,273,8.5,14.0,46,0.00,,,0.00,WUHU216WMR100,2013-03-12 16:54:00,
2013-03-12 11:59:00,38.3,18.1,29.90,WSW,245,12.0,17.7,44,0.00,,,0.00,WUHU216WMR100,2013-03-12 16:59:00,
2013-03-12 12:04:00,39.4,20.2,29.90,WNW,292,5.1,17.7,46,0.00,,,0.00,WUHU216WMR100,2013-03-12 17:04:00,
2013-03-12 12:09:00,39.6,19.3,29.90,West,276,10.0,13.4,44,0.00,,,0.00,WUHU216WMR100,2013-03-12 17:09:00,
2013-03-12 12:14:00,39.0,18.2,29.90,SSW,198,16.0,21.5,43,0.00,,,0.00,WUHU216WMR100,2013-03-12 17:14:00,
2013-03-12 12:19:00,39.4,19.1,29.90,WSW,247,11.4,21.5,44,0.00,,,0.00,WUHU216WMR100,2013-03-12 17:19:00,
2013-03-12 12:24:00,39.2,17.8,29.90,NNW,337,12.9,14.4,42,0.00,,,0.00,WUHU216WMR100,2013-03-12 17:24:00,
2013-03-12 12:29:00,38.8,18.0,29.90,West,270,10.4,12.9,43,0.00,,,0.00,WUHU216WMR100,2013-03-12 17:29:00,
2013-03-12 12:34:00,39.2,18.4,29.90,SSW,213,7.9,12.9,43,0.00,,,0.00,WUHU216WMR100,2013-03-12 17:34:00,
2013-03-12 12:39:00,39.2,17.8,29.90,WSW,247,13.4,13.4,42,0.00,,,0.00,WUHU216WMR100,2013-03-12 17:39:00,
2013-03-12 12:44:00,39.7,18.3,29.90,WSW,254,11.1,15.8,42,0.00,,,0.00,WUHU216WMR100,2013-03-12 17:44:00,
2013-03-12 12:49:00,39.7,17.7,29.90,WSW,251,10.4,15.8,41,0.00,,,0.00,WUHU216WMR100,2013-03-12 17:49:00,
2013-03-12 12:54:00,39.6,17.6,29.90,West,278,18.0,21.5,41,0.00,,,0.00,WUHU216WMR100,2013-03-12 17:54:00,
2013-03-12 12:59:00,39.2,17.3,29.90,WNW,283,6.2,21.5,41,0.00,,,0.00,WUHU216WMR100,2013-03-12 17:59:00,
2013-03-12 13:04:00,39.4,17.5,29.90,West,270,9.6,14.4,41,0.00,,,0.00,WUHU216WMR100,2013-03-12 18:04:00,
2013-03-12 13:09:00,39.6,17.6,29.90,SSW,202,17.0,17.0,41,0.00,,,0.00,WUHU216WMR100,2013-03-12 18:09:00,
2013-03-12 13:14:00,38.8,16.9,29.90,SW,225,12.9,17.7,41,0.00,,,0.00,WUHU216WMR100,2013-03-12 18:14:00,
2013-03-12 13:19:00,38.8,16.9,29.90,SSW,202,12.9,17.7,41,0.00,,,0.00,WUHU216WMR100,2013-03-12 18:19:00,
2013-03-12 13:24:00,38.7,16.8,29.90,WNW,292,13.4,13.4,41,0.00,,,0.00,WUHU216WMR100,2013-03-12 18:24:00,
2013-03-12 13:29:00,38.1,16.8,29.90,WSW,247,10.7,13.4,42,0.00,,,0.00,WUHU216WMR100,2013-03-12 18:29:00,
2013-03-12 13:34:00,37.6,16.4,29.90,WNW,292,11.9,12.9,42,0.00,,,0.00,WUHU216WMR100,2013-03-12 18:34:00,
2013-03-12 13:39:00,37.2,17.1,29.90,WSW,247,12.9,15.8,44,0.00,,,0.00,WUHU216WMR100,2013-03-12 18:39:00,
2013-03-12 13:44:00,36.7,17.2,29.90,SW,225,14.0,17.3,45,0.00,,,0.00,WUHU216WMR100,2013-03-12 18:44:00,
2013-03-12 13:49:00,36.3,17.4,29.90,SW,228,9.6,17.3,46,0.00,,,0.00,WUHU216WMR100,2013-03-12 18:49:00,
2013-03-12 13:54:00,36.3,17.4,29.90,West,278,7.3,14.0,46,0.00,,,0.00,WUHU216WMR100,2013-03-12 18:54:00,
2013-03-12 13:59:00,36.5,18.1,29.90,WSW,247,12.2,12.5,47,0.00,,,0.00,WUHU216WMR100,2013-03-12 18:59:00,
2013-03-12 14:04:00,36.5,18.1,29.90,WNW,292,8.1,12.5,47,0.00,,,0.00,WUHU216WMR100,2013-03-12 19:04:00,
2013-03-12 14:09:00,36.7,18.3,29.90,WNW,300,8.4,12.2,47,0.00,,,0.00,WUHU216WMR100,2013-03-12 19:09:00,
2013-03-12 14:14:00,36.3,17.9,29.90,West,270,6.6,14.4,47,0.00,,,0.00,WUHU216WMR100,2013-03-12 19:14:00,
2013-03-12 14:20:00,36.3,17.9,29.90,West,260,10.3,14.4,47,0.00,,,0.00,WUHU216WMR100,2013-03-12 19:20:00,
2013-03-12 14:24:00,36.3,18.4,29.90,WNW,292,14.0,14.0,48,0.00,,,0.00,WUHU216WMR100,2013-03-12 19:24:00,
2013-03-12 14:30:00,36.3,17.9,29.90,WSW,258,6.8,14.0,47,0.00,,,0.00,WUHU216WMR100,2013-03-12 19:30:00,
2013-03-12 14:35:00,36.5,18.6,29.90,WNW,302,8.7,14.0,48,0.00,,,0.00,WUHU216WMR100,2013-03-12 19:35:00,
2013-03-12 14:40:00,37.4,19.4,29.90,WSW,253,7.5,12.2,48,0.00,,,0.00,WUHU216WMR100,2013-03-12 19:40:00,
2013-03-12 14:45:00,39.4,20.7,29.90,West,276,5.8,12.2,47,0.00,,,0.00,WUHU216WMR100,2013-03-12 19:45:00,
2013-03-12 14:50:00,39.6,19.3,29.90,WSW,247,13.4,13.4,44,0.00,,,0.00,WUHU216WMR100,2013-03-12 19:50:00,
2013-03-12 14:55:00,40.5,18.4,29.90,West,277,14.6,16.2,41,0.00,,,0.00,WUHU216WMR100,2013-03-12 19:55:00,
2013-03-12 15:00:00,39.7,17.7,29.90,West,267,11.2,16.2,41,0.00,,,0.00,WUHU216WMR100,2013-03-12 20:00:00,
2013-03-12 15:05:00,39.6,18.2,29.90,WNW,292,10.4,14.4,42,0.00,,,0.00,WUHU216WMR100,2013-03-12 20:05:00,
2013-03-12 15:10:00,39.7,18.3,29.90,SW,225,20.6,23.9,42,0.00,,,0.00,WUHU216WMR100,2013-03-12 20:10:00,
2013-03-12 15:15:00,39.7,18.3,29.90,WNW,292,10.7,23.9,42,0.00,,,0.00,WUHU216WMR100,2013-03-12 20:15:00,
2013-03-12 15:20:00,39.9,18.5,29.90,WNW,292,9.9,20.6,42,0.00,,,0.00,WUHU216WMR100,2013-03-12 20:20:00,
2013-03-12 15:25:00,39.7,18.3,29.90,WSW,247,11.9,14.0,42,0.00,,,0.00,WUHU216WMR100,2013-03-12 20:25:00,
2013-03-12 15:30:00,39.0,17.7,29.90,NNW,337,11.4,11.9,42,0.00,,,0.00,WUHU216WMR100,2013-03-12 20:30:00,
2013-03-12 15:35:00,38.7,17.4,29.90,NNW,337,12.5,12.5,42,0.00,,,0.00,WUHU216WMR100,2013-03-12 20:35:00,
2013-03-12 15:40:00,38.5,17.8,29.90,West,271,11.6,12.5,43,0.00,,,0.00,WUHU216WMR100,2013-03-12 20:40:00,
2013-03-12 15:45:00,38.7,18.5,29.90,WNW,292,6.6,16.2,44,0.00,,,0.00,WUHU216WMR100,2013-03-12 20:45:00,
2013-03-12 15:50:00,38.7,18.5,29.90,WSW,248,10.1,16.2,44,0.00,,,0.00,WUHU216WMR100,2013-03-12 20:50:00,
2013-03-12 15:55:00,38.8,18.0,29.90,WSW,256,7.8,17.0,43,0.00,,,0.00,WUHU216WMR100,2013-03-12 20:55:00,
2013-03-12 16:00:00,38.8,18.0,29.90,West,270,15.5,17.0,43,0.00,,,0.00,WUHU216WMR100,2013-03-12 21:00:00,
2013-03-12 16:05:00,38.8,18.6,29.90,WSW,247,10.4,15.5,44,0.00,,,0.00,WUHU216WMR100,2013-03-12 21:05:00,
2013-03-12 16:10:00,39.0,18.8,29.90,WNW,285,9.4,12.2,44,0.00,,,0.00,WUHU216WMR100,2013-03-12 21:10:00,
2013-03-12 16:15:00,39.2,19.0,29.90,WNW,292,15.2,15.2,44,0.00,,,0.00,WUHU216WMR100,2013-03-12 21:15:00,
2013-03-12 16:20:00,38.8,19.1,29.90,WSW,247,12.5,16.2,45,0.00,,,0.00,WUHU216WMR100,2013-03-12 21:20:00,
2013-03-12 16:25:00,38.3,19.7,29.90,WNW,292,14.0,16.2,47,0.00,,,0.00,WUHU216WMR100,2013-03-12 21:25:00,
2013-03-12 16:30:00,37.8,20.8,29.90,WNW,292,10.4,14.0,50,0.00,,,0.00,WUHU216WMR100,2013-03-12 21:30:00,
2013-03-12 16:35:00,37.6,21.1,29.90,NW,308,6.9,14.0,51,0.00,,,0.00,WUHU216WMR100,2013-03-12 21:35:00,
2013-03-12 16:40:00,37.2,22.1,29.90,WSW,247,11.1,11.4,54,0.00,,,0.00,WUHU216WMR100,2013-03-12 21:40:00,
2013-03-12 16:45:00,36.7,23.3,29.90,WNW,292,6.9,11.1,58,0.00,,,0.00,WUHU216WMR100,2013-03-12 21:45:00,
2013-03-12 16:50:00,36.0,25.8,29.90,WNW,284,9.9,11.9,66,0.00,,,0.00,WUHU216WMR100,2013-03-12 21:50:00,
2013-03-12 16:55:00,35.1,27.0,29.90,WNW,292,4.1,11.9,72,0.00,,,0.00,WUHU216WMR100,2013-03-12 21:55:00,
2013-03-12 17:00:00,34.3,28.2,29.90,WNW,302,9.2,12.5,78,0.00,,,0.00,WUHU216WMR100,2013-03-12 22:00:00,
2013-03-12 17:05:00,34.7,30.1,29.90,West,277,5.3,12.5,83,0.00,,,0.00,WUHU216WMR100,2013-03-12 22:05:00,
2013-03-12 17:10:00,35.1,30.7,29.90,WNW,302,4.5,8.1,84,0.00,,,0.00,WUHU216WMR100,2013-03-12 22:10:00,
2013-03-12 17:15:00,35.2,30.5,29.90,WNW,292,5.6,8.1,83,0.00,,,0.00,WUHU216WMR100,2013-03-12 22:15:00,
2013-03-12 17:20:00,34.5,29.9,29.90,WNW,292,4.8,6.3,83,0.00,,,0.00,WUHU216WMR100,2013-03-12 22:20:00,
2013-03-12 17:25:00,34.2,29.9,29.90,WNW,293,7.5,12.9,84,0.00,,,0.00,WUHU216WMR100,2013-03-12 22:25:00,
2013-03-12 17:30:00,33.8,29.7,29.90,WSW,247,5.9,14.0,85,0.00,,,0.00,WUHU216WMR100,2013-03-12 22:30:00,
2013-03-12 17:35:00,33.6,29.8,29.90,WSW,252,6.1,14.0,86,0.00,,,0.00,WUHU216WMR100,2013-03-12 22:35:00,
2013-03-12 17:40:00,33.3,29.8,29.90,WNW,292,9.9,9.9,87,0.00,,,0.00,WUHU216WMR100,2013-03-12 22:40:00,
2013-03-12 17:45:00,33.1,30.2,29.90,WNW,292,14.0,14.0,89,0.00,,,0.00,WUHU216WMR100,2013-03-12 22:45:00,
2013-03-12 17:50:00,33.3,30.6,29.90,WNW,292,8.9,14.0,90,0.00,,,0.00,WUHU216WMR100,2013-03-12 22:50:00,
2013-03-12 17:55:00,33.6,31.2,29.90,WNW,297,4.5,14.0,91,0.00,,,0.00,WUHU216WMR100,2013-03-12 22:55:00,
2013-03-12 18:00:00,33.8,31.1,29.90,WNW,288,4.7,10.4,90,0.00,,,0.00,WUHU216WMR100,2013-03-12 23:00:00,
2013-03-12 18:05:00,33.8,30.9,29.90,West,261,6.3,8.9,89,0.00,,,0.00,WUHU216WMR100,2013-03-12 23:05:00,
2013-03-12 18:10:00,33.6,30.7,29.90,WSW,255,6.3,8.9,89,0.00,,,0.00,WUHU216WMR100,2013-03-12 23:10:00,
2013-03-12 18:15:00,33.6,30.7,29.90,West,267,5.1,7.1,89,0.00,,,0.00,WUHU216WMR100,2013-03-12 23:15:00,
2013-03-12 18:20:00,33.6,30.7,29.90,SSW,202,10.4,10.4,89,0.00,,,0.00,WUHU216WMR100,2013-03-12 23:20:00,
2013-03-12 18:25:00,33.6,30.4,29.90,WNW,292,8.9,10.4,88,0.00,,,0.00,WUHU216WMR100,2013-03-12 23:25:00,
2013-03-12 18:30:00,33.6,30.1,29.90,West,277,12.1,14.0,87,0.00,,,0.00,WUHU216WMR100,2013-03-12 23:30:00,
2013-03-12 18:35:00,33.6,29.8,29.90,West,270,5.9,14.0,86,0.00,,,0.00,WUHU216WMR100,2013-03-12 23:35:00,
2013-03-12 18:40:00,33.4,29.6,29.90,WSW,247,7.8,10.4,86,0.00,,,0.00,WUHU216WMR100,2013-03-12 23:40:00,
2013-03-12 18:45:00,33.3,29.5,29.93,NW,304,11.4,12.2,86,0.00,,,0.00,WUHU216WMR100,2013-03-12 23:45:00,
2013-03-12 18:50:00,33.1,29.3,29.93,WSW,247,14.0,14.0,86,0.00,,,0.00,WUHU216WMR100,2013-03-12 23:50:00,
2013-03-12 18:55:00,33.1,29.1,29.93,WSW,242,6.6,14.0,85,0.00,,,0.00,WUHU216WMR100,2013-03-12 23:55:00,
2013-03-12 19:00:00,32.9,28.6,29.93,WSW,247,12.5,12.5,84,0.00,,,0.00,WUHU216WMR100,2013-03-13 00:00:00,
2013-03-12 19:05:00,32.9,27.7,29.93,West,262,7.8,12.5,81,0.00,,,0.00,WUHU216WMR100,2013-03-13 00:05:00,
2013-03-12 19:10:00,32.7,27.2,29.90,West,262,6.5,9.9,80,0.00,,,0.00,WUHU216WMR100,2013-03-13 00:10:00,
2013-03-12 19:15:00,32.7,26.9,29.90,WNW,285,7.4,9.9,79,0.00,,,0.00,WUHU216WMR100,2013-03-13 00:15:00,
2013-03-12 19:20:00,32.5,26.7,29.90,WSW,247,4.1,9.6,79,0.00,,,0.00,WUHU216WMR100,2013-03-13 00:20:00,
2013-03-12 19:25:00,32.5,26.7,29.90,West,275,4.1,9.6,79,0.00,,,0.00,WUHU216WMR100,2013-03-13 00:25:00,
2013-03-12 19:30:00,32.5,26.7,29.90,WSW,247,6.6,9.9,79,0.00,,,0.00,WUHU216WMR100,2013-03-13 00:30:00,
2013-03-12 19:35:00,32.5,26.7,29.90,WNW,284,9.9,10.4,79,0.00,,,0.00,WUHU216WMR100,2013-03-13 00:35:00,
2013-03-12 19:40:00,32.7,26.9,29.93,WNW,292,5.6,10.4,79,0.00,,,0.00,WUHU216WMR100,2013-03-13 00:40:00,
2013-03-12 19:45:00,32.7,26.9,29.93,West,260,5.9,10.4,79,0.00,,,0.00,WUHU216WMR100,2013-03-13 00:45:00,
2013-03-12 19:50:00,32.5,27.3,29.93,WNW,292,14.0,16.2,81,0.00,,,0.00,WUHU216WMR100,2013-03-13 00:50:00,
2013-03-12 19:55:00,32.2,26.7,29.93,West,278,8.9,16.2,80,0.00,,,0.00,WUHU216WMR100,2013-03-13 00:55:00,
2013-03-12 20:00:00,31.6,25.8,29.93,WNW,292,9.6,14.0,79,0.00,,,0.00,WUHU216WMR100,2013-03-13 01:00:00,
2013-03-12 20:05:00,31.3,25.3,29.93,West,277,6.2,9.6,78,0.00,,,0.00,WUHU216WMR100,2013-03-13 01:05:00,
2013-03-12 20:10:00,31.3,25.3,29.93,WNW,286,9.0,12.2,78,0.00,,,0.00,WUHU216WMR100,2013-03-13 01:10:00,
2013-03-12 20:15:00,31.3,24.6,29.93,WNW,292,7.8,12.2,76,0.00,,,0.00,WUHU216WMR100,2013-03-13 01:15:00,
2013-03-12 20:20:00,31.5,24.8,29.93,West,267,9.2,12.5,76,0.00,,,0.00,WUHU216WMR100,2013-03-13 01:20:00,
2013-03-12 20:25:00,31.5,24.8,29.93,WNW,292,5.9,12.9,76,0.00,,,0.00,WUHU216WMR100,2013-03-13 01:25:00,
2013-03-12 20:30:00,31.3,24.6,29.93,NW,315,8.9,12.9,76,0.00,,,0.00,WUHU216WMR100,2013-03-13 01:30:00,
2013-03-12 20:35:00,31.3,25.0,29.93,WSW,256,8.0,12.2,77,0.00,,,0.00,WUHU216WMR100,2013-03-13 01:35:00,
2013-03-12 20:40:00,31.3,25.0,29.93,WNW,292,8.9,11.9,77,0.00,,,0.00,WUHU216WMR100,2013-03-13 01:40:00,
2013-03-12 20:45:00,31.3,25.0,29.93,West,273,7.5,12.5,77,0.00,,,0.00,WUHU216WMR100,2013-03-13 01:45:00,
2013-03-12 20:50:00,31.3,25.0,29.93,West,264,6.2,12.5,77,0.00,,,0.00,WUHU216WMR100,2013-03-13 01:50:00,
2013-03-12 20:55:00,31.5,25.1,29.93,WNW,292,6.3,12.5,77,0.00,,,0.00,WUHU216WMR100,2013-03-13 01:55:00,
2013-03-12 21:00:00,31.5,25.1,29.93,WNW,289,7.3,14.0,77,0.00,,,0.00,WUHU216WMR100,2013-03-13 02:00:00,
2013-03-12 21:05:00,31.6,25.2,29.93,West,269,8.9,14.0,77,0.00,,,0.00,WUHU216WMR100,2013-03-13 02:05:00,
2013-03-12 21:10:00,31.8,25.1,29.93,West,262,11.8,16.2,76,0.00,,,0.00,WUHU216WMR100,2013-03-13 02:10:00,
2013-03-12 21:15:00,31.8,25.1,29.93,West,272,7.3,16.2,76,0.00,,,0.00,WUHU216WMR100,2013-03-13 02:15:00,
2013-03-12 21:20:00,31.8,24.8,29.93,WNW,292,11.9,11.9,75,0.00,,,0.00,WUHU216WMR100,2013-03-13 02:20:00,
2013-03-12 21:25:00,31.8,24.8,29.96,West,265,8.0,11.9,75,0.00,,,0.00,WUHU216WMR100,2013-03-13 02:25:00,
2013-03-12 21:30:00,31.6,24.0,29.96,WNW,292,10.7,11.9,73,0.00,,,0.00,WUHU216WMR100,2013-03-13 02:30:00,
2013-03-12 21:35:00,31.6,22.3,29.96,WNW,292,5.6,15.8,68,0.00,,,0.00,WUHU216WMR100,2013-03-13 02:35:00,
2013-03-12 21:40:00,31.5,21.5,29.96,NW,305,10.2,15.8,66,0.00,,,0.00,WUHU216WMR100,2013-03-13 02:40:00,
2013-03-12 21:45:00,31.1,20.8,29.96,WSW,247,5.9,14.4,65,0.00,,,0.00,WUHU216WMR100,2013-03-13 02:45:00,
2013-03-12 21:50:00,31.1,20.8,29.96,WNW,291,5.4,9.9,65,0.00,,,0.00,WUHU216WMR100,2013-03-13 02:50:00,
2013-03-12 21:55:00,30.7,20.0,29.96,WNW,287,8.6,13.4,64,0.00,,,0.00,WUHU216WMR100,2013-03-13 02:55:00,
2013-03-12 22:00:00,30.7,18.9,29.96,WNW,298,8.0,13.4,61,0.00,,,0.00,WUHU216WMR100,2013-03-13 03:00:00,
2013-03-12 22:05:00,30.6,18.4,29.96,WNW,298,5.3,10.4,60,0.00,,,0.00,WUHU216WMR100,2013-03-13 03:05:00,
2013-03-12 22:10:00,30.6,18.8,29.96,WNW,292,8.1,10.7,61,0.00,,,0.00,WUHU216WMR100,2013-03-13 03:10:00,
2013-03-12 22:15:00,30.4,18.6,29.96,WSW,247,8.9,10.7,61,0.00,,,0.00,WUHU216WMR100,2013-03-13 03:15:00,
2013-03-12 22:20:00,30.4,18.6,29.96,WNW,292,7.8,12.2,61,0.00,,,0.00,WUHU216WMR100,2013-03-13 03:20:00,
2013-03-12 22:25:00,30.4,19.0,29.96,WNW,292,4.8,12.2,62,0.00,,,0.00,WUHU216WMR100,2013-03-13 03:25:00,
2013-03-12 22:30:00,30.2,18.4,29.96,WNW,292,9.6,9.6,61,0.00,,,0.00,WUHU216WMR100,2013-03-13 03:30:00,
2013-03-12 22:35:00,30.2,17.6,29.96,NW,315,6.3,10.7,59,0.00,,,0.00,WUHU216WMR100,2013-03-13 03:35:00,
2013-03-12 22:40:00,30.2,16.8,29.96,WNW,302,10.8,14.4,57,0.00,,,0.00,WUHU216WMR100,2013-03-13 03:40:00,
2013-03-12 22:45:00,30.0,16.2,29.96,NW,312,10.2,14.4,56,0.00,,,0.00,WUHU216WMR100,2013-03-13 03:45:00,
2013-03-12 22:50:00,29.8,16.8,29.96,WNW,296,7.8,10.7,58,0.00,,,0.00,WUHU216WMR100,2013-03-13 03:50:00,
2013-03-12 22:55:00,29.8,16.0,29.96,WNW,292,12.2,18.1,56,0.00,,,0.00,WUHU216WMR100,2013-03-13 03:55:00,
2013-03-12 23:00:00,29.7,15.9,29.96,NW,315,10.4,18.1,56,0.00,,,0.00,WUHU216WMR100,2013-03-13 04:00:00,
2013-03-12 23:05:00,29.7,15.9,29.96,WNW,297,9.7,14.4,56,0.00,,,0.00,WUHU216WMR100,2013-03-13 04:05:00,
2013-03-12 23:10:00,29.5,15.7,29.96,NNW,337,8.9,16.7,56,0.00,,,0.00,WUHU216WMR100,2013-03-13 04:10:00,
2013-03-12 23:15:00,29.3,15.5,29.99,WNW,292,10.7,16.7,56,0.00,,,0.00,WUHU216WMR100,2013-03-13 04:15:00,
2013-03-12 23:20:00,29.1,15.4,29.99,NW,306,7.3,13.4,56,0.00,,,0.00,WUHU216WMR100,2013-03-13 04:20:00,
2013-03-12 23:25:00,29.1,15.4,29.99,NW,315,12.5,13.4,56,0.00,,,0.00,WUHU216WMR100,2013-03-13 04:25:00,
2013-03-12 23:30:00,28.9,15.6,29.99,NW,305,6.9,13.4,57,0.00,,,0.00,WUHU216WMR100,2013-03-13 04:30:00,
2013-03-12 23:35:00,28.8,15.5,29.99,WNW,302,9.0,12.5,57,0.00,,,0.00,WUHU216WMR100,2013-03-13 04:35:00,
2013-03-12 23:40:00,28.6,15.7,29.99,NW,315,8.1,12.2,58,0.00,,,0.00,WUHU216WMR100,2013-03-13 04:40:00,
2013-03-12 23:45:00,28.6,15.7,29.99,WNW,292,10.1,12.5,58,0.00,,,0.00,WUHU216WMR100,2013-03-13 04:45:00,
2013-03-12 23:50:00,28.4,15.5,29.99,NNE,22,9.6,12.5,58,0.00,,,0.00,WUHU216WMR100,2013-03-13 04:50:00,
2013-03-12 23:55:00,28.4,15.5,29.99,WNW,284,7.1,10.7,58,0.00,,,0.00,WUHU216WMR100,2013-03-13 04:55:00,